www.pogodaiklimat.ru

ПОГОДА в Арктик-Виллидже, AK

  • Прогноз погоды в Арктик-Виллидже
  • Монитор погоды в Арктик-Виллидже
  • Климат в Арктик-Виллидже

АРХИВ ПОГОДЫ в Арктик-Виллидже

Время (UTC), дата Ветер
(напр.,м/с)
 
Видим.   Явления Облачность Т
(С)
Тd
(С)
f
(%)
Тe
(С)
Тes
(С)
Комфортность

P
(гПа)

Po
(гПа)
Тmin
(С)
Tmax
(С)
R
(мм)
SD
(см)
09:56 20.05 С  16 км    8/5 1650 м
[средняя] 
+5.0  +3.3  89  +1  +1    1013.0  935.9         
10:56 20.05 СЗ  16 км    8/2 1500 м
[средняя] 
+5.0  +2.8  86  +1  +1    1012.5  935.6  +4.4  +11.1  0.3   
11:56 20.05 С  16 км    2/0 2400 м
[средняя] 
+4.4  +2.2  86  0  0    1012.7  935.6         
12:56 20.05 СЗ  16 км    10/0 3300 м
[средняя] 
+6.7  +2.8  76  +3  +3    1012.8  935.9         
13:56 20.05 С  16 км    2/0 2400 м
[средняя] 
+7.8  +3.3  73  +4  +5    1012.6  935.6         
14:56 20.05 СЗ  16 км    ясно  +9.4  +3.3  66  +6  +7    1012.8  935.9         
15:56 20.05 СЗ  4
{7} 
16 км    ясно  +11.1  +3.3  59  +9  +10    1012.8  935.9         
16:56 20.05 СЗ  4
{9} 
16 км    8/0 3300 м
[средняя] 
+12.2  +3.3  54  +10  +11    1012.5  935.6  +3.3  +12.2     
17:56 20.05 СЗ  6
{9} 
16 км    ясно  +13.9  +3.9  51  +12  +14    1012.3  935.6         
18:56 20.05 С  16 км    ясно  +15.0  +3.3  45  +14  +18    1012.3  935.6         
19:56 20.05 С  6
{9} 
16 км    5/0 3000 м
[средняя] 
+15.0  +2.8  44  +13  +15    1012.6  935.6         
20:56 20.05 С  5
{10} 
16 км    ясно  +14.4  +2.8  46  +13  +16    1012.6  935.6         
21:56 20.05 СВ  7
{9} 
16 км    2/0 2700 м
[средняя] 
+15.6  +2.8  42  +14  +16    1012.5  935.6         
22:56 20.05 С  4
{8} 
16 км    10/0 3000 м
[средняя] 
+15.0  +2.8  44  +14  +16    1012.6  935.6  +12.2  +16.1     
23:56 20.05 СЗ  16 км    10/0 3000 м
[средняя] 
+16.1  +2.8  41  +15  +17    1012.5  935.6         
00:56 21.05 СЗ  16 км    2/0 3000 м
[средняя] 
+16.1  +3.3  42  +15  +18    1012.2  935.3         
01:56 21.05 СЗ  16 км    10/0 3000 м
[средняя] 
+14.4  +2.8  46  +13  +15    1012.6  935.6         
02:56 21.05 ЮЗ  16 км    10/5 1800 м
[средняя] 
+11.1  +3.9  61  +8  +8    1013.1  935.9         
03:56 21.05 Ю  8
{10} 
14 км  слабый дождь  10/8 1470 м
[средняя] 
+8.9  +6.1  83  +4  +4    1014.0  936.8         
04:56 21.05 С  16 км    10/2 1260 м
[средняя] 
+7.8  +6.1  89  +5  +5    1014.7  937.5  +7.8  +17.2  2.3   
05:56 21.05 СЗ  16 км  слабый дождь  10/2 1500 м
[средняя] 
+7.2  +6.1  93  +3  +4    1014.9  937.8         
06:56 21.05 ЮВ  16 км    10/0 2100 м
[средняя] 
+7.2  +5.6  90  +4  +4    1016.4  939.0         
07:56 21.05 С  16 км    5/0 2400 м
[средняя] 
+5.6  +4.4  92  +1  +1    1016.3  939.0      0.8   
08:56 21.05 С  16 км    ясно  +5.0  +3.9  93  -0  -0    1016.8  939.4         
09:56 21.05 С  16 км    ясно  +4.4  +3.3  93  +1  +1    1017.2  939.7         
10:56 21.05 С  16 км    ясно  +3.9  +3.3  96  -1  -1    1017.8  940.3  +3.9  +8.3  0.8   
11:56 21.05 С  16 км    ясно  +3.9  +2.8  93  -1  -1    1017.7  940.3         
12:56 21.05 С  16 км    ясно  +4.4  +3.3  93  -0  -0    1018.0  940.6         
13:56 21.05 С  16 км    ясно  +5.0  +3.3  89  +3  +4    1018.5  940.9         
14:56 21.05 С  16 км    ясно  +6.7  +3.9  82  +3  +4    1019.0  941.2         
15:56 21.05 С  16 км    ясно  +8.9  +4.4  73  +6  +8    1019.2  941.2         
16:56 21.05 С  16 км    ясно  +11.7  +5.0  63  +10  +13    1019.0  941.2  +3.9  +11.7     
17:56 21.05 С  16 км    ясно  +13.9  +5.0  55  +13  +17    1019.2  941.6         
18:56 21.05 СЗ  16 км    2/0 3600 м
[средняя] 
+16.1  +5.6  50  +15  +20    1018.6  941.2         
19:56 21.05 С  16 км    2/0 3600 м
[средняя] 
+16.7  +5.6  48  +16  +21    1018.8  941.2         
20:56 21.05 нст  16 км    5/0 2850 м
[средняя] 
+17.8  +5.6  45  +18  +23    1018.8  941.6         
21:56 21.05 С  16 км    ясно  +18.3  +5.6  43  +18  +24    1018.9  941.6         
22:56 21.05   16 км    2/0 3600 м
[средняя] 
+18.9  +4.4  38  +19  +30    1018.8  941.6  +11.1  +19.4     
23:56 21.05 СЗ  16 км    8/0 2100 м
[средняя] 
+18.9  +4.4  38  +19  +21    1018.9  941.6         
01:56 22.05 С  16 км    ясно  +16.7  +6.1  50  +16  +20    1019.4  941.9         
02:56 22.05 З  16 км  слабый дождь  10/10 1950 м  +13.9  +6.7  62  +12  +12    1019.3  941.6         
03:46 22.05 СВ  14 км  слабый дождь  8/2 960 м
[средняя] 
+11.0  +6.0  71  +7  +7      942.8         
03:56 22.05 СВ  7
{10} 
16 км  слабый дождь  10/2 960 м
[средняя] 
+10.6  +7.2  79  +7  +7    1020.6  942.8         
04:56 22.05 З  16 км  слабый дождь  10/8 1950 м
[средняя] 
+10.0  +8.3  89  +7  +7    1021.2  943.4  +10.0  +18.9     
05:56 22.05 С  16 км  слабый дождь  10/0 2100 м
[средняя] 
+8.9  +7.2  89  +6  +6    1021.3  943.7         
06:56 22.05 СЗ  6
{8} 
16 км  слабый дождь  10/0 2100 м
[средняя] 
+9.4  +6.7  83  +6  +6    1021.5  944.1         
07:56 22.05 нст  16 км    10/0 2250 м
[средняя] 
+8.9  +6.1  83  +8  +8    1021.6  944.1         
08:56 22.05   16 км  слабый дождь  10/5 1950 м
[средняя] 
+8.3  +6.1  86  +7  +7    1021.7  944.4         

 

Местоположение метеостанции Arctic Village Airport: широта 68.1144 долгота -145.5792 высота над уровнем моря 638 м.

В архиве по умолчанию представлена погода в Арктик-Виллидже за последние 1-2 суток. Обновление информации о фактической погоде в базе происходит ежечасно! Архивные данные за месяц целиком и за предыдущие месяцы Вы можете получить, выбрав интересующий диапазон дат из раскрывающегося списка и нажав кнопку "Ввод!".

Внимание! Архив погоды МЕТАР в базе сайта хранится не более 60 дней. Нет смысла пытаться выбрать более раннюю дату.

Внимание! Время в таблицах - всемирное. Для получения местного времени необходимо прибавить поправку, которая в Арктик-Виллидже равна -9 ч.

Ветер - указаны скорость ветра в м/с и направление, откуда дует ветер: С - северный, СВ - северо-восточный, В - восточный, ЮВ - юго-восточный, Ю - южный, ЮЗ - юго-западный, З - западный, СЗ - северо-западный.
Видимость - горизонтальная дальность видимости в метрах или километрах. При видимости от 1 до 10 км при отсутствии осадков обычно наблюдается дымка, при ухудшении видимости до 1 км и менее - туман. В сухую погоду видимость может ухудшаться дымом, пылью или мглою.
Атмосферные явления - указаны явления, наблюдавшиеся в указанный момент времени.
Облачность - указаны через наклонную черту верхняя и нижняя облачность в баллах и высота нижней границы облаков в метрах. Внимание: облачность, как и прочие метеорологические величины в США измеряются автоматическими метеостанциями. Указанные значения в баллах носят условный характер и показывают процент времени, в течение которого, в среднем, лазерный луч высотомера отражался от облаков обратно.
T - Температура воздуха - температура, измеренная на высоте 2 м над землей.
Td - Температура точки росы - температура, при понижении до которой содержащийся в воздухе водяной пар достигнет насыщения.
f - Относительная влажность воздуха - влажноcть воздуха, измеренная на высоте 2 м над землей.
Te - Эффективная температура - температура, которую ощущает одетый по сезону человек в тени. Характеристика душности погоды. При расчете учитывается влияние влажности воздуха и скорости ветра на теплоощущения человека.
Tes - Эффективная температура на солнце - температура, которую ощущает человек, с поправкой на солнечный нагрев. Характеристика знойности погоды. Зависит от высоты солнца над горизонтом, облачности и скорости ветра. Ночью, в пасмурную погоду, а также при ветре 12 м/с и более поправка равна нулю.
P - Атмосферное давление - приведенное к уровню моря атмосферное давление.
Po - Атмосферное давление - измеренное на уровне метеостанции атмосферное давление.
Tmin - Минимальная температура - минимум температуры воздуха на высоте 2 м над землей.
Tmax - Максимальная температура - максимум температуры воздуха на высоте 2 м над землей.
R - Количество осадков - Количество выпавших осадков за 3 или 6 часов, мм.
SD - Снежный покров - Высота снежного покрова, см.